Lanai City, HI

5:41 PM HST on November 17, 2017 (GMT -1000)
Lanai City

Weather History for PHNY - August, 2014

Change the Weather History Date:

Wednesday, August 27, 2014

  Actual Average Record
Temperature  
Mean Temperature 76 °F -  
Max Temperature 83 °F 82 °F 87 °F (1993)
Min Temperature 70 °F 65 °F 60 °F (1953)
Cooling Degree Days 12    
Growing Degree Days 26 (Base 50)    
Moisture  
Dew Point 65 °F    
Average Humidity 69    
Maximum Humidity 87    
Minimum Humidity 53    
Precipitation  
Precipitation 0.00 in - - ()
Sea Level Pressure  
Sea Level Pressure 29.89 in    
Wind  
Wind Speed 17 mph (NE)    
Max Wind Speed 24 mph    
Max Gust Speed 32 mph    
Visibility 9 miles    
Events      
Averages and records for this station are not official NWS values.
T = Trace of Precipitation, MM = Missing Value Source: NWS Daily Summary

Daily Weather History Graph

Daily Weather History Graph

Search for Another Location

Airport or City:

Trip Planner

Search our weather history database for the weather conditions in past years. The results will help you decide how hot, cold, wet, or windy it might be!

Date:

Astronomy

Aug. 27, 2014 Rise Set
Actual Time 6:10 AM HST 6:47 PM HST
Civil Twilight 5:47 AM HST 7:10 PM HST
Nautical Twilight 5:21 AM HST 7:36 PM HST
Astronomical Twilight 4:54 AM HST 8:03 PM HST
Moon 7:55 AM HST (8/27) 8:10 PM HST (8/27)
Length of Visible Light 13h 22m
Length of Day
12h 37m
Waxing Crescent, 5% of the Moon is Illuminated
Aug 27
Waxing Crescent
Sep 2
First Quarter
Sep 8
Full
Sep 15
Last Quarter
Sep 23
New

Hourly Weather History & Observations

Time (HST) Temp. Heat Index Dew Point Humidity Pressure Visibility Wind Dir Wind Speed Gust Speed Precip Events Conditions
12:56 AM 72.0 °F - 64.9 °F 78% 29.89 in 10.0 mi NNE 24.2 mph 27.6 mph N/A   Clear
1:56 AM 72.0 °F - 64.9 °F 78% 29.89 in 10.0 mi East 12.7 mph - N/A   Clear
2:56 AM 70.9 °F - 65.8 °F 84% 29.88 in 10.0 mi NE 15.0 mph - 0.00 in   Clear
3:56 AM 70.9 °F - 64.9 °F 81% 29.88 in 10.0 mi ENE 10.4 mph - N/A   Clear
4:56 AM 70.0 °F - 65.8 °F 87% 29.89 in 10.0 mi East 11.5 mph - N/A   Clear
5:56 AM 70.0 °F - 64.9 °F 84% 29.90 in 10.0 mi ENE 16.1 mph - N/A   Clear
6:56 AM 72.0 °F - 64.9 °F 78% 29.91 in 10.0 mi NE 16.1 mph 20.7 mph N/A   Clear
7:56 AM 75.9 °F - 64.9 °F 69% 29.91 in 10.0 mi ENE 15.0 mph - N/A   Clear
8:56 AM 79.9 °F - 64.9 °F 60% 29.92 in 10.0 mi NE 13.8 mph - N/A   Clear
9:56 AM 79.0 °F - 64.9 °F 62% 29.93 in 10.0 mi NE 9.2 mph 17.3 mph N/A   Mostly Cloudy
10:56 AM 82.9 °F 84.6 °F 64.9 °F 54% 29.91 in 10.0 mi NE 17.3 mph 25.3 mph N/A   Clear
11:56 AM 83.8 °F 86.0 °F 65.8 °F 55% 29.89 in 10.0 mi NE 20.7 mph 26.5 mph N/A   Clear
12:56 PM 83.8 °F 86.0 °F 65.8 °F 55% 29.89 in 10.0 mi NE 16.1 mph 26.5 mph N/A   Clear
1:56 PM 83.8 °F 86.0 °F 65.8 °F 55% 29.87 in 10.0 mi NNE 17.3 mph 25.3 mph N/A   Clear
2:56 PM 82.9 °F 84.6 °F 64.9 °F 54% 29.86 in 6.0 mi NE 21.9 mph 31.1 mph N/A   Haze
3:56 PM 81.9 °F 83.1 °F 63.0 °F 53% 29.85 in 7.0 mi NE 23.0 mph - N/A   Clear
4:56 PM 79.9 °F - 63.0 °F 56% 29.85 in 5.0 mi NE 20.7 mph 32.2 mph N/A   Haze
5:56 PM 75.9 °F - 63.0 °F 64% 29.87 in 8.0 mi NE 19.6 mph 32.2 mph N/A   Clear
6:56 PM 72.9 °F - 63.9 °F 73% 29.87 in 10.0 mi NE 15.0 mph 31.1 mph N/A   Clear
7:56 PM 72.0 °F - 64.9 °F 78% 29.88 in 10.0 mi NE 21.9 mph 27.6 mph N/A   Clear
8:56 PM 72.0 °F - 64.9 °F 78% 29.90 in 10.0 mi ENE 13.8 mph 27.6 mph N/A   Clear
10:56 PM 72.0 °F - 65.8 °F 81% 29.91 in 10.0 mi NE 17.3 mph - N/A   Clear
11:56 PM 70.9 °F - 63.9 °F 78% 29.90 in 10.0 mi NE 18.4 mph - N/A   Partly Cloudy